Location: Newark
(44.4156°N, 12.1972°E)
Time: 18:47:36
(UTC+00:00)

STARLINK-1092 - Pass Details

Date: 28 January 2020
Orbit: 348 x 351 km, 53.0° (Epoch: 18 February)

Event Time Altitude Azimuth Distance (km) Brightness Sun altitude
Rises 17:18:17 0° 306° (NW) 2,167 7.3 -11.6°
Reaches altitude 10° 17:20:34 10° 323° (NW) 1,323 5.9 -12.0°
Maximum altitude 17:22:59 22° 17° (NNE) 825 4.2 -12.4°
Enters shadow 17:23:47 20° 43° (NE) 893 4.2 -12.6°
